Zurück zum Katalog

STARLINK-37610

AktivKommunikationVLEO
NORAD 100029·PAYLOAD·🇺🇸 United States

Gestartet Jul 14, 2026 von Cape Canaveral Space Force Station

Loading…

Nächste Überflüge (nächste 24 Stunden)

TLE

AktuellSource: Space-Track

Epoche: Sep 14, 2026, 08:04 UTC

1 A0029U 26161B   26257.33660991  .00018874  00000-0  56864-3 0  9996
2 A0029  53.1613  26.5659 0001268  74.9131 285.2012 15.34382823  9667

Verfolge STARLINK-37610 in Echtzeit mit AllMySat

Download on the App Store